Overview Statistics Trail Chart Weather Telemetry Raw packets
 

This is the latest recevied weather packets stored in our database for station/object K7OWW-2. If no packets are shown the sender has not sent any weather packets the latest 10 day(s).

<< 27 28 29 30 31 32 33 >>
Time Temp. Humidity Pressure Rain* Wind** Luminosity Snow
1788131335 24.44° C 11% 1017.3 hPa 0 mm - - -
1788130735 24.44° C 11% 1017.4 hPa 0 mm - - -
1788130135 24.44° C 12% 1017.5 hPa 0 mm - - -
1788129837 24.44° C 12% 1017.6 hPa 0 mm - - -
1788129535 23.89° C 12% 1017.6 hPa 0 mm - - -
1788128935 23.33° C 12% 1017.8 hPa 0 mm - - -
1788128335 22.78° C 13% 1017.9 hPa 0 mm - - -
1788128037 22.78° C 12% 1018 hPa 0 mm - - -
1788127735 22.78° C 13% 1018.1 hPa 0 mm - - -
1788127137 22.78° C 13% 1018.2 hPa 0 mm - - -
1788126535 22.78° C 12% 1018.3 hPa 0 mm - - -
1788126237 22.22° C 12% 1018.4 hPa 0 mm - - -
1788125935 22.22° C 13% 1018.5 hPa 0 mm - - -
1788125338 22.22° C 14% 1018.6 hPa 0 mm - - -
1788124437 22.22° C 14% 1018.8 hPa 0 mm - - -
1788124135 22.22° C 15% 1018.8 hPa 0 mm - - -
1788123535 21.11° C 19% 1018.8 hPa 0 mm - - -
1788122935 21.67° C 19% 1018.9 hPa 0 mm - - -
1788122335 21.11° C 21% 1019 hPa 0 mm - - -
1788121735 20.56° C 27% 1019.1 hPa 0 mm - - -
1788121135 20.56° C 26% 1019.2 hPa 0 mm - - -
1788120837 20.56° C 26% 1019.2 hPa 0 mm - - -
1788120535 20.56° C 28% 1019.3 hPa 0 mm - - -
1788119935 20.56° C 28% 1019.2 hPa 0 mm - - -
1788119335 20.56° C 28% 1019.2 hPa 0 mm - - -

* Rain latest hour (hover to see other rain measurements)
** Current wind speed in m/s (hover to see current wind gust speed)